• In Russia
  • List of Countries
  • For 7 days
  • Water Temperature
  • Satellite Maps
  • Weather Map
  • Weather Widgets
  • user-avatar
    Login

    Hourly Weather Naftalan

    Today, 11 December, Sunday

    Time Temperature Precipitation Wind Pressure Humidity
    00:00 +3°C° 0 mm 6 mps 761 mmHg 58%
    01:00 +3°C° 0 mm 6 mps 761 mmHg 59%
    02:00 +3°C° 0 mm 6 mps 761 mmHg 60%
    03:00 +3°C° 0 mm 6 mps 761 mmHg 61%
    04:00 +3°C° 0 mm 6 mps 762 mmHg 63%
    05:00 +3°C° 0 mm 6 mps 762 mmHg 65%
    06:00 +2°C° 0 mm 5 mps 762 mmHg 67%
    07:00 +3°C° 0 mm 5 mps 762 mmHg 64%
    08:00 +5°C° 0 mm 5 mps 763 mmHg 61%
    09:00 +6°C° 0 mm 4 mps 763 mmHg 58%
    10:00 +7°C° 0 mm 4 mps 763 mmHg 56%
    11:00 +10°C° 0 mm 4 mps 762 mmHg 53%
    12:00 +11°C° 0 mm 4 mps 762 mmHg 50%
    13:00 +11°C° 0 mm 3 mps 762 mmHg 51%
    14:00 +11°C° 0 mm 3 mps 761 mmHg 53%
    15:00 +10°C° 0 mm 2 mps 761 mmHg 54%
    16:00 +9°C° 0 mm 3 mps 761 mmHg 57%
    17:00 +8°C° 0 mm 3 mps 761 mmHg 60%
    18:00 +7°C° 0 mm 3 mps 761 mmHg 63%
    19:00 +5°C° 0 mm 4 mps 762 mmHg 64%
    20:00 +5°C° 0 mm 5 mps 762 mmHg 64%
    21:00 +4°C° 0 mm 6 mps 762 mmHg 65%
    22:00 +4°C° 0 mm 6 mps 762 mmHg 65%
    23:00 +4°C° 0 mm 6 mps 763 mmHg 66%

    Tomorrow, 12 December, Monday

    Time Temperature Precipitation Wind Pressure Humidity
    00:00 +3°C° 0 mm 7 mps 764 mmHg 66%
    01:00 +3°C° 0 mm 6 mps 764 mmHg 67%
    02:00 +3°C° 0 mm 5 mps 765 mmHg 68%
    03:00 +3°C° 0 mm 4 mps 765 mmHg 69%
    04:00 +3°C° 0 mm 3 mps 766 mmHg 70%
    05:00 +4°C° 0 mm 2 mps 766 mmHg 71%
    06:00 +4°C° 0 mm 1 mps 766 mmHg 72%
    07:00 +6°C° 0 mm 1 mps 766 mmHg 67%
    08:00 +6°C° 0 mm 2 mps 766 mmHg 62%
    09:00 +7°C° 0 mm 2 mps 767 mmHg 58%
    10:00 +9°C° 0 mm 2 mps 766 mmHg 55%
    11:00 +10°C° 0 mm 2 mps 765 mmHg 51%
    12:00 +12°C° 0 mm 3 mps 764 mmHg 48%
    13:00 +12°C° 0 mm 3 mps 764 mmHg 51%
    14:00 +11°C° 0 mm 3 mps 763 mmHg 55%
    15:00 +11°C° 0 mm 3 mps 763 mmHg 58%
    16:00 +10°C° 0 mm 3 mps 762 mmHg 65%
    17:00 +8°C° 0 mm 3 mps 762 mmHg 72%
    18:00 +7°C° 0 mm 3 mps 762 mmHg 79%
    19:00 +7°C° 0 mm 3 mps 761 mmHg 79%
    20:00 +5°C° 0 mm 3 mps 761 mmHg 79%
    21:00 +5°C° 0 mm 3 mps 760 mmHg 79%
    22:00 +5°C° 0 mm 3 mps 760 mmHg 73%
    23:00 +5°C° 0 mm 3 mps 760 mmHg 68%

    Day after tomorrow, 13 December, Tuesday

    Time Temperature Precipitation Wind Pressure Humidity
    00:00 +5°C° 0 mm 4 mps 759 mmHg 63%
    01:00 +5°C° 0 mm 4 mps 759 mmHg 62%
    02:00 +5°C° 0 mm 4 mps 759 mmHg 62%
    03:00 +5°C° 0 mm 5 mps 758 mmHg 62%
    04:00 +5°C° 0 mm 5 mps 758 mmHg 60%
    05:00 +5°C° 0 mm 5 mps 759 mmHg 59%
    06:00 +6°C° 0 mm 5 mps 759 mmHg 57%
    07:00 +6°C° 0 mm 5 mps 759 mmHg 57%
    08:00 +7°C° 0 mm 5 mps 759 mmHg 57%
    09:00 +8°C° 0 mm 5 mps 759 mmHg 56%
    10:00 +9°C° 0 mm 5 mps 759 mmHg 53%
    11:00 +12°C° 0 mm 4 mps 759 mmHg 49%
    12:00 +13°C° 0 mm 4 mps 758 mmHg 45%
    13:00 +13°C° 0 mm 3 mps 758 mmHg 47%
    14:00 +13°C° 0 mm 3 mps 758 mmHg 48%
    15:00 +14°C° 0 mm 2 mps 758 mmHg 50%
    16:00 +12°C° 0 mm 3 mps 758 mmHg 53%
    17:00 +11°C° 0 mm 3 mps 759 mmHg 56%
    18:00 +10°C° 0 mm 4 mps 759 mmHg 59%
    19:00 +8°C° 0 mm 4 mps 759 mmHg 70%
    20:00 +7°C° 0 mm 5 mps 759 mmHg 80%
    21:00 +7°C° 0 mm 5 mps 759 mmHg 90%
    22:00 +6°C° 0 mm 5 mps 759 mmHg 91%
    23:00 +6°C° 0 mm 5 mps 759 mmHg 92%

    14 December, Wednesday

    Time Temperature Precipitation Wind Pressure Humidity
    00:00 +6°C° 0 mm 5 mps 759 mmHg 93%
    01:00 +6°C° 0 mm 5 mps 758 mmHg 92%
    02:00 +6°C° 0 mm 5 mps 758 mmHg 91%
    03:00 +5°C° 0 mm 6 mps 758 mmHg 91%
    04:00 +5°C° 0 mm 6 mps 759 mmHg 90%
    05:00 +5°C° 0 mm 6 mps 759 mmHg 90%
    06:00 +5°C° 0 mm 6 mps 759 mmHg 89%
    07:00 +6°C° 0.2 mm 7 mps 760 mmHg 88%
    08:00 +6°C° 0.2 mm 7 mps 760 mmHg 87%
    09:00 +6°C° 0.2 mm 8 mps 761 mmHg 85%
    10:00 +6°C° 0.2 mm 8 mps 761 mmHg 84%
    11:00 +6°C° 0.2 mm 9 mps 761 mmHg 83%
    12:00 +6°C° 0.2 mm 9 mps 760 mmHg 82%
    13:00 +6°C° 0.4 mm 10 mps 761 mmHg 81%
    14:00 +4°C° 0.4 mm 11 mps 761 mmHg 80%
    15:00 +4°C° 0.4 mm 12 mps 761 mmHg 79%
    16:00 +3°C° 0.9 mm 12 mps 761 mmHg 78%
    17:00 +1°C° 0.9 mm 13 mps 762 mmHg 78%
    18:00 +1°C° 0.9 mm 13 mps 763 mmHg 77%
    19:00 0°C° 1 mm 13 mps 763 mmHg 78%
    20:00 0°C° 1 mm 13 mps 764 mmHg 79%
    21:00 -1°C° 1 mm 13 mps 764 mmHg 81%
    22:00 -1°C° 0.6 mm 13 mps 764 mmHg 81%
    23:00 -2°C° 0.6 mm 13 mps 765 mmHg 82%

    15 December, Thursday

    Time Temperature Precipitation Wind Pressure Humidity
    00:00 -2°C° 0.6 mm 13 mps 765 mmHg 82%
    01:00 -2°C° 0.5 mm 12 mps 765 mmHg 83%
    02:00 -3°C° 0.5 mm 12 mps 765 mmHg 84%
    03:00 -3°C° 0.5 mm 12 mps 766 mmHg 85%
    04:00 -3°C° 0.3 mm 11 mps 766 mmHg 84%
    05:00 -3°C° 0.3 mm 11 mps 767 mmHg 84%
    06:00 -3°C° 0.3 mm 11 mps 767 mmHg 84%
    07:00 -3°C° 0.2 mm 10 mps 768 mmHg 84%
    08:00 -3°C° 0.2 mm 9 mps 768 mmHg 84%
    09:00 -2°C° 0.2 mm 8 mps 769 mmHg 84%
    10:00 -2°C° 0.1 mm 8 mps 769 mmHg 84%
    11:00 -2°C° 0.1 mm 7 mps 769 mmHg 84%
    12:00 -1°C° 0.1 mm 6 mps 769 mmHg 84%
    13:00 -1°C° 0 mm 6 mps 769 mmHg 83%
    14:00 0°C° 0 mm 5 mps 769 mmHg 82%
    15:00 0°C° 0 mm 4 mps 769 mmHg 81%
    16:00 -1°C° 0 mm 4 mps 769 mmHg 83%
    17:00 -2°C° 0 mm 4 mps 770 mmHg 85%
    18:00 -4°C° 0 mm 4 mps 770 mmHg 87%
    19:00 -4°C° 0.1 mm 3 mps 770 mmHg 87%
    20:00 -4°C° 0.1 mm 3 mps 770 mmHg 87%
    21:00 -4°C° 0.1 mm 3 mps 770 mmHg 87%
    22:00 -4°C° 0.2 mm 4 mps 770 mmHg 86%
    23:00 -4°C° 0.2 mm 4 mps 770 mmHg 86%

    16 December, Friday

    Time Temperature Precipitation Wind Pressure Humidity
    00:00 -4°C° 0.2 mm 4 mps 770 mmHg 86%
    01:00 -4°C° 0.2 mm 4 mps 770 mmHg 86%
    02:00 -4°C° 0.2 mm 4 mps 770 mmHg 85%
    03:00 -5°C° 0.2 mm 5 mps 770 mmHg 85%
    04:00 -5°C° 0.2 mm 5 mps 770 mmHg 84%
    05:00 -5°C° 0.2 mm 5 mps 771 mmHg 83%
    06:00 -5°C° 0.2 mm 5 mps 771 mmHg 83%
    07:00 -4°C° 0.1 mm 5 mps 771 mmHg 82%
    08:00 -2°C° 0.1 mm 5 mps 771 mmHg 81%
    09:00 -1°C° 0.1 mm 5 mps 771 mmHg 80%
    10:00 -1°C° 0 mm 5 mps 771 mmHg 79%
    11:00 0°C° 0 mm 5 mps 771 mmHg 79%
    12:00 +1°C° 0 mm 5 mps 770 mmHg 78%
    13:00 +1°C° 0 mm 5 mps 770 mmHg 77%
    14:00 +1°C° 0 mm 5 mps 770 mmHg 76%
    15:00 +1°C° 0 mm 5 mps 770 mmHg 75%
    16:00 0°C° 0 mm 5 mps 770 mmHg 76%
    17:00 -1°C° 0 mm 5 mps 770 mmHg 77%
    18:00 -2°C° 0 mm 5 mps 770 mmHg 78%
    19:00 -3°C° 0 mm 6 mps 770 mmHg 77%
    20:00 -3°C° 0 mm 6 mps 771 mmHg 75%
    21:00 -3°C° 0 mm 7 mps 771 mmHg 74%
    22:00 -3°C° 0 mm 7 mps 771 mmHg 73%
    23:00 -3°C° 0 mm 7 mps 771 mmHg 71%
    Show more